ONEWEB-0117 (47263 NORAD) Tracking and Keplerian Element Data

This shows tracking and keplerian element data for the satellite.

Feedback or suggestion? Click here.




ElementValue
Catalog47263
NameONEWEB-0117
Epoch Orbit1689
Epoch Day106.25002315
Epoch Year2021
RAAN6.0438
Inclination87.9164
Eccentricity0.0001406
Argument of Perigee83.6785
Mean Anonmoly57.5127
Mean Motion13.19275659
Decay Rate1.3E-07
L11 47263U 20100F 21106.25002315 .00000013 00000-0 00000+0 0 9996
L22 47263 87.9164 6.0438 0001406 83.6785 57.5127 13.19275659 16897

Live tracking and technical data element details for ONEWEB-0117 (NORAD 47263). ONEWEB-0117 can be tracked NOW for your location showing map with azimuth and elevation plus other details from your city location.

Track the satellite on the map from your city or location and see movement details for azimuth, elevation, latitude, longitude, range, height, and movement on the map or in text.







IsCatalogInMostPopularTable: catalog: 47263, numindb: 35
Update: records affected: 1



GetName: 47263 ONEWEB-0117

Hit Count: updated at: Fri, 16 Apr 2021 10:24:05 GMT